Temp
15 15 16 17 17 16 16 15 16 18 17 17 16 17 17 16 15 14 13 14 13 12 12 12 12 11 11 12 12 12 11 11 11 10 11 11 11 11 11 10 10 10 9 9
15 16 17 16 17 17 17 16 16 15 17 16 16 17 16 16 17 16 16 15 15 14 14 14 13 11 11 12 12 12 12 11 11 11 11 11 11 11 11 11 11 10 10 9
15 17 16 16 17 17 16 17 17 16 16 15 16 15 15 15 15 15 15 15 14 15 15 15 15 14 13 13 13 13 13 12 11 11 11 11 11 11 12 12 12 11 11 11
14 16 16 16 17 17 17 18 18 17 16 15 16 14 15 15 15 15 15 15 15 15 15 14 15 15 15 14 13 13 13 12 12 11 11 11 11 10 11 11 11 11 11 11
14 15 17 16 17 17 18 18 18 17 16 16 14 16 17 15 15 16 16 16 15 15 15 15 15 15 14 14 14 14 13 12 12 11 11 12 11 11 10 10 11 11 11 11
14 14 16 17 18 17 18 17 17 17 16 14 16 16 17 17 18 19 17 16 16 16 15 14 14 14 14 14 13 14 13 12 12 12 11 11 12 11 11 10 10 10 11 11
14 14 15 16 17 17 17 16 16 14 12 11 16 15 17 18 19 19 18 18 17 16 15 14 14 14 14 14 14 14 14 13 12 11 11 11 11 11 11 11 11 10 10 10
14 14 15 16 16 16 17 16 16 12 10 14 16 14 17 19 18 18 18 18 17 17 16 16 16 15 14 14 14 14 14 13 13 12 11 11 11 11 10 10 10 10 10 10
14 14 15 15 16 16 17 16 17 17 14 14 17 17 18 19 19 18 18 17 17 17 17 17 16 15 15 14 14 14 13 13 13 12 11 11 11 11 10 10 10 10 10 10
14 14 15 15 16 16 16 17 17 16 12 13 15 17 19 19 19 19 18 18 17 17 17 17 16 16 15 15 14 13 13 13 12 12 12 11 11 11 10 9 9 9 10 9
14 14 15 15 16 16 16 17 17 17 17 10 11 16 19 19 19 19 19 19 18 18 17 17 16 16 15 15 15 14 13 13 12 12 12 11 11 10 10 9 9 9 9 9
14 14 14 15 16 16 17 17 17 17 15 17 17 18 19 19 19 19 19 19 18 17 17 17 16 16 16 15 15 15 14 13 13 12 11 11 10 10 9 8 9 9 9 9
14 14 14 15 15 16 16 17 17 17 18 18 15 17 19 19 19 19 18 18 18 17 17 17 16 16 16 15 15 15 14 14 13 12 12 11 10 10 10 9 8 9 9 8
15 14 14 14 15 16 16 17 17 17 18 18 18 18 18 19 18 18 18 18 17 17 17 17 17 16 16 15 15 15 14 14 14 13 12 11 10 10 9 9 8 8 8 8
14 15 15 15 16 16 17 17 17 18 18 18 19 19 19 18 18 18 18 18 17 18 17 17 17 16 16 15 15 15 14 14 14 13 12 12 11 9 9 9 9 8 8 8
15 15 15 15 16 16 16 17 17 17 19 19 19 19 19 18 18 18 17 17 17 17 17 17 16 15 15 15 15 14 14 14 13 13 13 12 9 8 8 8 8 8 7 7
14 14 15 15 16 16 16 17 17 18 18 18 18 18 19 18 18 18 17 17 17 17 16 16 15 15 15 15 15 15 14 13 13 13 13 10 9 9 8 8 6 7 7 7
14 14 14 15 15 13 17 17 18 17 17 18 18 18 18 18 18 18 17 17 17 16 16 15 15 15 15 15 15 15 14 13 13 12 12 11 6 8 8 8 7 7 7 6
14 15 13 14 15 15 17 16 17 18 17 17 18 18 18 18 18 17 17 16 16 16 15 15 15 15 15 15 14 14 14 14 13 12 12 10 9 8 8 8 8 7 6 5
14 14 14 15 15 12 15 16 16 17 17 17 16 17 17 18 17 16 16 15 15 15 15 15 14 15 14 14 14 14 13 13 12 11 10 9 9 8 8 7 7 6 5 4
12 13 12 13 12 11 13 16 15 16 14 16 17 16 17 17 15 15 14 14 14 14 13 14 13 13 13 13 13 13 13 12 11 10 10 9 8 8 8 7 6 5 4 3
10 11 10 11 10 10 13 13 14 14 13 13 13 14 15 14 14 14 13 13 13 13 13 13 12 13 13 12 13 12 11 11 10 10 9 9 8 8 8 7 6 5 4 4
9 10 10 10 8 9 11 12 12 12 13 13 14 13 13 14 13 13 12 13 13 13 12 12 12 13 13 12 12 11 11 10 10 9 8 7 7 7 7 6 4 4 5 6
9 8 9 9 9 9 10 10 10 10 11 11 12 12 12 12 12 13 12 12 11 11 11 11 12 12 12 12 11 10 10 9 9 8 7 6 6 5 5 4 5 5 5 4
9 9 9 9 8 8 9 9 9 9 10 11 12 12 12 12 12 11 11 11 10 11 11 10 11 11 11 11 10 10 8 8 7 7 6 6 6 3 3 4 5 4 4 3
9 9 10 10 10 9 8 8 8 8 8 9 9 9 9 10 11 11 11 9 9 9 9 9 11 10 10 10 9 8 7 6 7 6 6 5 5 5 4 4 5 4 4 3
Height
3136 3137 3138 3147 3153 3157 3162 3163 3160 3162 3164 3166 3169 3170 3171 3172 3173 3173 3175 3178 3179 3180 3182 3184 3185 3186 3187 3189 3191 3193 3194 3195 3196 3196 3197 3198 3197 3196 3195 3194 3193 3192 3192 3191
3132 3131 3139 3146 3150 3153 3157 3160 3162 3164 3163 3167 3168 3169 3171 3171 3172 3173 3174 3176 3177 3177 3178 3180 3182 3184 3185 3187 3189 3192 3193 3194 3195 3197 3198 3197 3196 3194 3192 3190 3189 3188 3187 3187
3123 3130 3137 3141 3145 3148 3153 3155 3158 3161 3163 3165 3168 3171 3168 3170 3172 3173 3173 3174 3175 3177 3177 3179 3181 3183 3184 3185 3188 3190 3192 3194 3196 3197 3197 3197 3196 3194 3192 3190 3188 3186 3184 3184
3122 3128 3131 3136 3140 3144 3147 3152 3155 3157 3161 3158 3162 3164 3164 3166 3168 3169 3169 3169 3170 3173 3176 3179 3180 3181 3183 3185 3187 3189 3191 3194 3195 3195 3196 3196 3196 3195 3193 3190 3188 3186 3185 3184
3115 3121 3125 3129 3135 3141 3145 3150 3151 3153 3154 3155 3155 3159 3157 3163 3163 3162 3162 3164 3166 3169 3173 3176 3179 3182 3183 3184 3186 3187 3189 3192 3193 3193 3193 3194 3194 3193 3192 3190 3188 3186 3184 3183
3114 3120 3124 3126 3134 3137 3143 3144 3146 3146 3147 3148 3146 3151 3149 3153 3154 3156 3159 3161 3162 3164 3168 3172 3177 3179 3181 3182 3184 3186 3187 3189 3190 3190 3192 3192 3192 3192 3191 3189 3187 3186 3186 3183
3109 3112 3118 3123 3127 3133 3135 3140 3144 3145 3146 3143 3142 3146 3144 3146 3148 3150 3152 3155 3157 3160 3164 3167 3170 3174 3178 3179 3181 3184 3185 3185 3186 3187 3188 3189 3189 3189 3188 3186 3186 3186 3185 3182
3104 3107 3110 3116 3119 3125 3130 3134 3137 3144 3146 3138 3136 3138 3136 3141 3144 3146 3150 3154 3156 3156 3159 3162 3166 3169 3173 3176 3177 3180 3181 3182 3183 3184 3185 3185 3185 3184 3184 3184 3183 3182 3181 3179
3100 3099 3107 3111 3118 3122 3124 3125 3132 3132 3133 3132 3131 3132 3134 3137 3138 3141 3143 3148 3150 3152 3154 3159 3162 3165 3169 3171 3173 3175 3177 3178 3179 3180 3181 3181 3181 3180 3181 3181 3181 3179 3178 3176
3097 3098 3101 3108 3113 3114 3116 3123 3125 3124 3128 3129 3125 3125 3127 3130 3131 3133 3135 3140 3144 3147 3152 3156 3159 3162 3164 3167 3169 3171 3172 3173 3175 3176 3176 3177 3178 3177 3177 3177 3176 3176 3174 3171
3093 3095 3097 3101 3100 3103 3111 3111 3114 3118 3117 3118 3125 3118 3123 3124 3128 3128 3130 3135 3140 3144 3148 3151 3154 3157 3159 3161 3162 3165 3167 3168 3169 3170 3171 3172 3173 3173 3173 3173 3172 3172 3170 3167
3085 3089 3090 3089 3095 3101 3102 3104 3108 3109 3112 3112 3113 3113 3118 3122 3124 3124 3128 3132 3136 3141 3145 3148 3150 3152 3153 3154 3155 3158 3160 3161 3163 3165 3166 3166 3167 3167 3167 3168 3168 3167 3165 3163
3076 3079 3083 3084 3089 3091 3092 3098 3102 3105 3105 3104 3108 3111 3114 3117 3120 3121 3124 3129 3133 3137 3139 3141 3144 3146 3148 3150 3150 3151 3153 3155 3157 3158 3159 3160 3159 3160 3161 3161 3161 3161 3160 3158
3068 3070 3073 3072 3076 3084 3088 3092 3094 3096 3096 3098 3100 3105 3108 3111 3115 3117 3120 3123 3127 3130 3133 3136 3139 3141 3144 3145 3144 3145 3147 3148 3149 3151 3150 3151 3152 3153 3154 3153 3155 3156 3155 3153
3057 3061 3066 3067 3072 3079 3081 3085 3086 3086 3090 3092 3096 3098 3102 3107 3109 3112 3114 3119 3123 3125 3127 3130 3132 3134 3137 3139 3139 3139 3141 3141 3142 3142 3141 3142 3146 3146 3147 3146 3148 3151 3149 3149
3048 3051 3057 3060 3065 3071 3075 3077 3079 3082 3082 3085 3089 3092 3097 3101 3103 3106 3110 3114 3117 3119 3122 3125 3128 3130 3132 3133 3132 3133 3134 3135 3135 3133 3132 3133 3136 3137 3143 3141 3138 3142 3144 3143
3044 3045 3048 3052 3059 3066 3067 3068 3071 3071 3076 3079 3082 3089 3092 3094 3098 3102 3106 3107 3110 3115 3119 3122 3124 3126 3127 3128 3127 3126 3127 3127 3128 3126 3124 3126 3128 3130 3132 3132 3131 3132 3137 3137
3040 3039 3043 3045 3053 3061 3061 3064 3067 3067 3070 3074 3079 3083 3087 3091 3094 3097 3099 3101 3106 3110 3115 3119 3121 3121 3122 3122 3120 3119 3118 3118 3119 3119 3116 3119 3098 3120 3127 3122 3125 3130 3131 3132
3036 3033 3037 3041 3045 3053 3054 3057 3060 3062 3068 3070 3073 3079 3083 3086 3088 3092 3096 3102 3105 3108 3111 3114 3116 3116 3116 3116 3115 3113 3110 3109 3110 3111 3111 3112 3111 3117 3119 3118 3121 3124 3123 3125
3033 3028 3033 3034 3040 3045 3047 3051 3053 3055 3059 3065 3068 3076 3079 3080 3080 3085 3091 3098 3103 3106 3109 3110 3110 3110 3111 3111 3110 3108 3106 3104 3104 3106 3105 3107 3109 3110 3110 3114 3117 3119 3118 3115
3030 3029 3032 3031 3034 3042 3043 3049 3052 3053 3063 3060 3066 3072 3074 3076 3081 3084 3090 3094 3098 3102 3104 3105 3105 3104 3106 3106 3105 3102 3100 3098 3099 3098 3098 3099 3100 3101 3103 3103 3105 3104 3103 3103
3034 3030 3035 3034 3037 3041 3041 3045 3052 3057 3059 3062 3067 3067 3069 3075 3080 3085 3088 3092 3092 3094 3097 3098 3097 3100 3099 3100 3101 3096 3094 3093 3093 3093 3093 3094 3094 3096 3095 3096 3097 3096 3090 3084
3036 3037 3042 3043 3041 3042 3044 3047 3053 3057 3059 3062 3063 3065 3069 3072 3075 3080 3085 3087 3090 3094 3092 3094 3093 3093 3094 3092 3091 3090 3088 3087 3087 3086 3087 3089 3089 3090 3091 3092 3095 3096 3094 3089
3027 3041 3042 3044 3044 3049 3049 3049 3053 3057 3062 3062 3064 3067 3068 3071 3074 3077 3083 3083 3082 3084 3087 3087 3087 3087 3085 3083 3084 3084 3081 3078 3078 3081 3082 3083 3084 3085 3087 3084 3084 3089 3086 3082
3025 3028 3037 3042 3046 3052 3050 3051 3055 3058 3063 3064 3066 3066 3068 3071 3073 3075 3078 3078 3079 3083 3081 3082 3081 3079 3076 3076 3074 3075 3072 3069 3070 3069 3074 3076 3076 3075 3075 3079 3075 3077 3077 3074
3025 3028 3030 3030 3042 3040 3050 3052 3057 3059 3062 3064 3066 3068 3070 3070 3069 3069 3068 3073 3075 3075 3077 3075 3071 3071 3069 3068 3066 3068 3066 3061 3067 3064 3065 3069 3069 3069 3067 3074 3073 3071 3069 3067
Wind_Speed
34 35 37 29 20 13 38 32 33 24 27 28 24 18 10 8 8 12 17 15 13 12 10 11 10 10 10 10 9 9 9 9 5 2 1 2 4 8 11 13 14 15 16 19
35 41 38 29 23 18 22 12 33 26 29 31 24 19 12 9 6 10 14 13 11 11 9 8 8 9 8 10 10 10 9 7 8 9 10 11 11 9 8 10 10 12 13 13
41 44 36 33 30 24 17 17 11 24 27 28 20 19 22 19 14 15 15 9 8 7 8 10 9 9 10 10 9 8 10 12 13 12 12 13 15 17 15 11 11 11 12 13
34 45 34 35 34 28 22 19 13 10 29 27 28 16 28 26 24 25 22 19 15 12 10 10 10 11 10 11 13 13 12 12 12 12 11 10 12 17 21 20 16 12 9 8
30 40 48 40 39 32 26 20 16 16 26 34 34 15 26 30 31 28 28 23 21 18 15 10 7 10 11 14 13 14 15 14 11 11 11 10 9 12 16 20 22 21 16 12
36 17 45 48 41 32 26 22 20 22 22 18 38 32 25 32 29 22 28 26 24 21 21 20 13 11 13 14 17 16 17 15 11 8 6 6 8 7 11 16 21 22 22 18
30 35 31 35 47 36 32 25 5 3 3 6 35 32 29 23 24 24 18 16 16 24 24 23 22 19 17 18 18 19 17 16 13 11 9 5 1 5 8 13 16 19 23 24
26 27 40 33 37 35 35 31 17 7 4 8 15 17 43 33 29 23 22 19 16 17 21 18 19 22 20 15 15 18 21 17 17 16 14 11 7 6 6 9 12 17 21 21
30 33 33 41 33 31 33 31 27 29 8 5 14 17 26 28 20 24 25 30 23 21 20 18 17 22 26 22 20 20 18 19 21 21 20 17 14 12 10 10 13 14 17 19
29 14 36 36 33 32 33 29 17 14 6 5 7 9 11 17 20 24 28 28 25 22 25 20 19 18 19 17 22 25 24 22 23 24 24 24 21 20 18 17 15 18 19 20
40 32 28 29 36 37 32 33 29 26 20 7 4 16 22 16 23 22 21 24 26 22 18 17 19 19 18 19 23 25 29 28 25 25 28 30 30 27 24 24 20 20 20 20
48 36 40 38 32 32 28 31 36 27 13 13 17 23 17 18 19 21 21 24 25 19 16 17 18 20 20 22 25 24 26 34 32 28 28 29 33 28 25 26 23 23 21 20
46 45 32 34 39 36 35 31 29 36 36 30 15 19 19 16 15 16 20 26 23 24 24 18 20 21 24 24 25 26 26 24 32 33 33 33 37 22 22 23 24 23 19 18
45 44 43 33 33 31 28 34 31 32 36 28 34 25 19 17 21 20 22 29 25 24 24 22 20 14 19 20 24 28 29 29 30 31 37 36 31 24 23 21 24 23 18 19
42 48 47 48 50 36 26 27 23 34 43 35 33 29 27 23 22 23 24 30 28 25 25 24 19 18 17 20 25 30 26 26 28 31 39 37 30 28 25 24 20 22 17 21
17 47 48 51 45 44 42 37 37 35 41 40 38 33 30 24 24 26 30 32 32 31 28 26 18 17 15 16 22 26 26 30 25 27 34 45 39 32 26 26 18 20 20 17
7 36 42 40 46 35 31 30 24 32 44 40 36 34 30 23 27 27 29 31 33 35 32 22 22 17 14 15 20 25 29 30 30 31 37 40 45 30 25 32 24 23 18 13
16 14 39 39 35 9 26 29 27 23 27 25 19 21 22 19 24 27 34 31 35 35 29 23 18 10 10 12 16 18 23 29 33 34 39 42 46 26 28 21 18 18 16 18
15 11 29 29 28 14 19 25 24 24 11 8 21 18 25 28 24 33 36 37 35 31 21 22 15 13 13 15 15 16 20 22 25 28 30 36 29 24 28 19 19 16 12 15
2 6 24 27 18 6 18 22 26 25 21 20 18 13 15 19 21 34 39 32 27 23 21 21 12 13 14 16 19 23 21 23 23 23 25 27 28 30 24 18 17 19 18 24
6 3 6 6 8 8 21 19 21 12 14 19 31 30 25 20 27 34 28 25 22 21 20 19 15 15 17 22 26 26 23 20 19 22 25 28 30 28 26 29 28 29 25 18
9 7 7 5 6 3 15 19 16 19 21 16 19 22 22 24 25 26 25 25 25 24 18 21 23 22 24 29 28 26 24 20 21 25 26 27 29 27 32 32 34 36 33 26
13 2 1 6 17 20 16 21 23 22 21 22 23 25 23 24 22 24 20 22 22 27 20 19 24 35 36 33 30 30 27 21 24 25 26 25 26 28 29 30 31 31 41 28
20 22 7 10 20 24 27 28 26 24 25 24 24 25 25 23 24 22 26 23 23 16 20 25 29 23 29 27 31 34 29 29 26 24 22 22 21 26 29 22 9 21 24 19
19 18 11 14 18 19 18 20 20 17 15 17 21 23 24 22 21 25 19 23 23 33 29 32 32 29 31 26 28 31 31 28 24 21 24 27 22 11 19 16 16 17 18 16
18 22 25 24 23 10 20 15 14 14 10 15 16 17 17 24 27 20 23 26 33 31 23 27 33 29 27 24 24 28 29 24 22 20 16 19 22 16 9 16 16 18 15 17
Wind_Direction
197 207 212 213 207 179 194 206 202 213 206 211 220 237 234 197 191 196 204 213 193 179 179 198 208 219 233 236 226 222 231 247 251 284 324 341 305 293 287 285 287 284 273 268
202 212 212 217 217 214 189 206 218 214 211 210 216 230 234 206 221 171 171 168 155 163 171 175 197 210 219 215 205 202 207 184 143 113 91 67 47 23 353 328 310 292 281 273
205 207 211 216 216 217 217 218 211 227 210 205 220 214 214 207 206 203 205 202 201 193 177 176 181 184 196 193 186 176 159 142 135 123 97 71 55 48 40 23 0 347 333 320
214 204 212 217 220 220 229 217 231 238 206 196 209 204 218 219 216 221 227 221 209 205 205 217 202 188 183 180 183 171 152 144 139 124 103 83 62 50 47 43 35 28 11 347
207 208 211 216 215 218 222 225 244 271 219 207 199 216 227 221 227 231 235 228 225 219 219 216 239 230 204 202 196 180 174 164 143 119 97 74 58 49 37 30 30 30 23 10
221 204 213 221 215 224 215 241 269 285 232 204 211 206 220 222 237 244 236 236 230 227 232 229 224 224 231 226 217 213 195 184 179 163 135 96 48 24 18 16 16 14 13 11
224 222 213 218 222 227 230 244 267 285 208 213 218 207 222 244 253 249 243 238 232 233 235 241 239 230 232 238 235 239 229 217 206 203 197 194 143 9 1 6 358 357 1 1
219 225 216 208 220 229 233 236 220 189 204 222 207 201 230 251 256 252 244 244 240 240 234 234 246 249 246 241 249 250 251 250 236 224 222 227 250 286 306 332 337 341 351 351
221 234 220 222 221 228 236 246 253 251 239 186 212 227 243 234 249 239 242 233 220 223 222 214 237 254 252 249 252 259 259 260 254 235 233 243 257 276 269 288 310 323 334 341
223 234 228 220 227 236 240 246 247 224 166 233 220 212 226 231 251 283 234 211 210 215 222 224 233 237 256 259 265 259 258 257 255 249 244 249 257 273 267 277 290 303 317 329
226 230 229 223 227 229 231 234 242 251 237 174 223 245 246 264 262 261 215 211 212 213 208 215 221 239 249 253 258 262 262 260 258 254 255 255 261 272 271 272 279 293 309 323
228 232 237 234 228 231 237 244 247 237 230 223 234 243 249 247 277 232 218 218 209 205 219 226 223 229 246 258 265 266 268 265 264 260 261 260 259 266 273 267 271 285 301 313
221 222 225 243 247 233 237 236 247 250 236 224 210 233 245 233 229 213 224 213 210 212 224 222 226 231 238 249 261 265 265 272 270 265 261 259 256 266 277 271 265 278 295 307
224 219 220 227 233 225 230 239 258 243 219 227 231 230 222 224 211 197 203 209 207 208 216 218 205 222 233 250 261 265 265 262 266 265 262 261 264 265 273 264 260 271 286 299
222 221 226 234 238 233 221 235 266 243 229 224 228 229 232 235 226 219 217 201 203 222 221 225 237 227 232 244 258 260 261 269 271 269 262 262 256 253 264 270 265 262 280 293
220 218 225 233 238 240 243 253 254 247 224 224 231 238 236 242 230 220 206 208 213 217 227 231 231 234 245 275 268 265 265 264 269 278 268 259 258 257 263 269 265 247 273 278
307 216 216 227 233 237 229 240 263 237 229 227 225 237 237 232 216 218 220 223 224 218 223 228 237 238 266 278 276 270 266 264 267 270 275 266 258 251 264 275 236 273 257 280
292 255 218 218 223 211 231 240 231 213 206 206 211 220 228 251 242 236 232 226 215 216 219 237 224 232 260 279 283 284 275 268 260 260 264 273 256 270 286 274 236 239 258 275
276 269 207 207 210 198 191 188 174 183 174 193 215 241 244 251 255 235 225 216 217 211 231 219 226 244 288 310 311 309 291 274 262 258 265 277 264 277 283 268 226 243 261 275
87 338 206 195 172 179 171 186 195 200 205 237 243 233 236 250 228 212 204 201 214 218 220 222 233 253 317 310 317 324 314 286 263 256 259 253 255 254 254 213 226 249 266 258
352 23 125 184 113 130 160 179 175 163 182 203 227 234 244 238 206 191 187 191 198 210 211 227 241 267 296 307 315 317 315 278 254 254 248 245 248 250 247 211 221 233 240 263
5 43 17 61 100 78 164 158 176 172 149 154 165 170 175 180 182 182 189 195 206 210 212 232 261 267 291 290 290 305 306 292 264 260 255 252 263 267 232 218 227 240 269 250
214 3 58 44 101 102 136 158 146 159 166 164 175 174 184 191 192 181 184 199 223 237 237 259 276 287 284 287 281 286 292 279 266 264 261 259 269 261 237 239 248 269 285 293
175 235 168 134 120 126 133 138 145 152 171 168 174 170 172 182 188 211 249 240 233 251 263 270 262 280 292 284 272 274 276 267 271 268 266 272 259 242 252 270 287 286 286 275
158 160 193 161 157 148 151 153 159 164 184 200 210 219 229 241 242 222 234 265 267 268 259 286 278 294 290 272 257 267 271 263 269 255 265 268 266 261 304 307 299 252 262 276
195 191 191 196 202 204 211 212 220 250 241 251 273 272 270 274 269 272 282 261 255 258 272 296 281 295 284 275 267 271 280 292 277 272 295 299 297 291 291 268 246 247 258 274